カタログに戻る

COSMOS 2247

運用中ナビゲーションPO
NORAD 22648·PAYLOAD·🇷🇺 Russia

打ち上げ May 11, 1993 から Plesetsk Cosmodrome

Loading…

次のパス (今後24時間)

TLE

最新Source: Space-Track

元期: Sep 14, 2026, 11:39 UTC

1 22648U 93030C   26257.48544032  .00000017  00000-0  33316-4 0  9997
2 22648  82.5742 258.9275 0009418  94.8253  59.5484 12.63282165537357

AllMySatでCOSMOS 2247をリアルタイム追跡

Download on the App Store